Wind_Speed
15 10 17 26 27 34 38 44 45 47 46 51 50 47 49 41 46 43 40 43 41 33 33 24 24 19 15 17 13 14 15 16
12 11 8 12 31 25 28 30 40 48 45 42 42 48 43 38 42 37 40 44 37 34 30 24 23 25 26 29 26 27 21 20
27 11 17 27 26 41 37 35 37 42 41 41 38 38 36 40 41 39 41 44 43 31 32 32 28 27 27 26 26 27 24 22
25 21 35 32 26 28 35 35 36 40 40 40 34 32 33 38 35 33 42 45 38 31 24 24 25 27 28 26 28 28 32 30
34 32 20 25 25 15 30 39 38 39 39 33 29 32 33 30 35 42 40 42 35 33 32 31 33 28 26 27 31 30 23 32
37 38 33 33 42 40 37 37 46 45 40 39 43 44 43 36 36 34 34 36 37 37 29 22 28 31 33 36 29 33 33 36
27 37 39 43 32 40 44 44 52 46 45 47 48 45 43 36 37 36 35 38 38 33 34 31 37 38 33 30 36 37 33 38
21 35 38 33 34 33 41 51 53 48 50 56 56 49 46 39 37 39 34 35 34 34 36 40 39 29 33 38 39 39 42 46
12 31 33 37 36 36 44 62 59 47 51 48 49 52 51 50 49 48 42 36 38 38 41 34 30 35 41 36 40 43 50 55
15 31 36 34 34 39 51 60 60 45 45 50 48 48 45 41 39 44 44 41 38 39 36 39 37 37 41 41 48 58 58 53
20 36 42 35 35 39 41 46 53 57 54 50 54 46 47 44 45 45 46 47 44 47 49 44 43 45 43 50 55 59 62 53
29 35 41 45 38 36 45 46 49 52 58 54 53 56 52 50 53 51 52 52 50 50 44 47 43 46 53 59 57 65 62 60
33 39 43 47 44 40 47 45 49 49 51 57 59 56 58 54 50 56 57 57 58 57 50 46 51 59 64 63 65 67 68 63
38 43 48 50 52 41 46 48 51 54 54 52 55 59 61 61 65 60 61 63 58 52 55 56 63 64 67 66 68 69 59 52
40 44 43 46 53 54 43 43 52 57 56 55 57 58 60 62 65 65 64 61 59 62 64 65 66 69 73 72 72 63 53 49
31 42 45 43 46 47 52 56 53 50 50 51 52 55 56 56 58 59 60 60 63 65 66 70 74 73 71 73 64 58 52 49
10 32 42 46 49 50 52 51 52 54 54 54 57 57 59 61 60 62 65 67 68 72 72 73 74 77 71 62 59 57 50 47
5 10 30 43 47 50 53 55 56 56 56 56 59 60 62 64 66 67 67 70 71 71 72 69 71 62 62 58 54 53 53 46
10 5 6 21 39 45 51 54 56 54 54 56 58 60 61 62 63 66 67 68 68 69 65 62 61 58 58 53 55 55 51 51
11 9 7 8 13 28 41 46 52 53 55 56 55 55 56 57 57 61 62 63 59 55 57 58 59 60 54 54 54 52 52 50
Wind_Direction
199 222 225 226 213 221 249 241 233 222 223 225 227 230 227 230 232 235 238 248 258 250 254 251 259 274 265 265 273 282 291 317
182 176 273 234 203 217 216 241 223 215 212 212 220 225 217 216 212 224 237 255 252 251 252 257 264 260 265 269 283 285 312 328
192 233 244 243 209 206 201 218 214 207 208 206 215 210 210 212 220 230 246 248 247 251 256 257 262 264 270 276 280 292 309 324
176 180 231 230 217 216 211 208 203 203 200 200 202 204 209 220 218 232 231 240 244 249 258 261 264 272 278 277 284 293 299 306
202 205 197 235 235 203 199 205 196 182 184 188 201 213 216 206 214 221 231 237 244 253 261 262 268 277 275 276 285 298 301 302
206 210 201 189 222 206 192 200 184 175 184 194 204 210 212 212 225 232 239 245 249 257 262 259 268 274 278 280 281 286 300 309
223 209 209 205 208 199 204 187 177 179 190 196 202 209 213 220 232 248 253 250 251 261 257 256 281 287 274 273 282 289 301 307
223 204 208 202 196 201 193 181 178 189 195 203 208 212 216 233 242 249 256 251 260 265 263 279 286 260 271 281 283 292 307 307
232 217 202 192 188 199 195 180 184 194 199 213 217 226 237 242 245 251 259 257 262 270 274 272 266 266 266 272 285 295 303 307
224 212 194 187 182 196 192 190 192 193 207 216 219 230 235 244 252 254 260 261 262 264 267 269 264 258 269 272 287 298 306 307
212 202 196 200 195 202 196 203 204 204 208 217 223 232 236 238 239 247 256 262 257 260 267 266 262 263 275 282 291 300 303 299
195 199 204 200 205 210 206 209 215 215 214 218 221 226 230 231 241 249 250 250 257 264 265 262 261 269 280 286 294 298 298 296
188 196 204 207 204 205 211 215 215 224 223 224 229 227 232 237 241 243 251 255 259 263 265 267 268 274 279 286 294 294 299 296
186 193 199 209 211 218 219 218 222 226 228 232 232 237 240 242 247 251 255 257 260 258 265 265 271 277 284 289 288 295 291 289
199 198 200 204 216 221 220 226 229 233 235 237 240 244 245 247 251 255 259 261 262 264 271 270 276 283 286 287 291 287 285 283
221 208 207 206 208 218 227 230 223 221 227 237 244 247 250 251 252 252 255 257 264 269 271 273 278 284 284 286 285 282 279 283
258 215 207 208 209 212 217 228 238 242 238 245 241 242 245 246 254 260 263 266 267 269 273 277 275 279 281 278 279 282 285 289
310 259 223 209 212 216 219 222 228 234 239 243 245 247 256 252 257 263 265 266 267 271 273 273 276 273 274 275 281 283 292 292
335 299 252 237 224 222 223 226 228 231 236 242 247 251 253 256 258 261 263 266 265 267 269 268 267 271 275 278 287 290 293 293
356 345 306 247 247 239 233 229 231 233 235 238 244 249 251 253 255 258 259 260 263 263 263 265 268 271 274 284 288 290 289 286
Height
10653 10655 10660 10665 10675 10686 10683 10685 10691 10699 10706 10715 10724 10732 10741 10750 10758 10762 10769 10768 10770 10771 10773 10774 10775 10776 10775 10776 10773 10773 10770 10768
10651 10652 10656 10662 10669 10674 10676 10680 10683 10692 10700 10707 10717 10724 10735 10743 10751 10755 10760 10761 10763 10766 10767 10768 10769 10771 10770 10770 10769 10768 10764 10762
10645 10649 10649 10658 10664 10666 10671 10674 10678 10685 10696 10703 10712 10720 10730 10737 10743 10749 10753 10754 10758 10759 10761 10763 10764 10765 10766 10765 10763 10760 10758 10757
10641 10644 10647 10653 10659 10665 10668 10671 10675 10683 10693 10700 10708 10716 10724 10731 10738 10744 10743 10747 10751 10752 10755 10757 10758 10759 10759 10758 10755 10754 10752 10751
10638 10638 10645 10651 10657 10662 10664 10669 10674 10681 10689 10696 10704 10713 10720 10726 10732 10734 10735 10739 10743 10744 10748 10749 10752 10752 10752 10752 10749 10747 10745 10745
10636 10637 10639 10646 10648 10654 10659 10663 10672 10679 10687 10695 10703 10708 10715 10722 10724 10726 10729 10734 10736 10739 10741 10743 10744 10744 10745 10745 10741 10741 10740 10738
10631 10634 10637 10641 10646 10650 10655 10663 10670 10676 10684 10692 10698 10705 10710 10715 10718 10720 10724 10726 10730 10734 10734 10735 10736 10737 10735 10734 10733 10733 10732 10729
10629 10631 10633 10639 10644 10648 10654 10661 10668 10675 10681 10686 10693 10698 10704 10708 10712 10714 10717 10721 10723 10725 10726 10728 10729 10729 10728 10726 10726 10723 10721 10720
10628 10631 10636 10640 10644 10649 10653 10659 10665 10673 10679 10685 10692 10696 10699 10702 10705 10707 10710 10713 10716 10717 10719 10721 10721 10720 10719 10718 10716 10715 10713 10711
10627 10629 10635 10639 10644 10647 10653 10658 10663 10670 10677 10683 10689 10693 10696 10698 10698 10699 10703 10706 10709 10711 10711 10713 10713 10712 10711 10709 10707 10705 10704 10701
10625 10627 10633 10637 10643 10647 10653 10658 10663 10669 10671 10677 10681 10687 10691 10693 10693 10694 10697 10700 10701 10703 10704 10704 10704 10702 10701 10699 10698 10695 10693 10690
10622 10626 10631 10636 10641 10645 10650 10655 10659 10665 10668 10672 10677 10680 10683 10686 10686 10688 10689 10690 10692 10693 10693 10693 10693 10692 10691 10689 10687 10685 10682 10677
10618 10621 10625 10630 10637 10641 10646 10650 10653 10657 10663 10668 10670 10672 10675 10677 10678 10679 10681 10682 10682 10684 10684 10684 10683 10681 10678 10678 10677 10673 10671 10666
10611 10614 10617 10623 10630 10635 10640 10645 10647 10650 10654 10658 10662 10664 10666 10668 10669 10670 10672 10672 10673 10673 10673 10673 10671 10669 10667 10664 10663 10660 10655 10653
10606 10609 10613 10616 10622 10628 10632 10637 10640 10643 10646 10649 10652 10654 10657 10659 10661 10662 10663 10664 10663 10664 10664 10662 10660 10657 10655 10649 10648 10645 10642 10639
10600 10602 10606 10610 10614 10620 10624 10628 10630 10634 10638 10642 10645 10646 10648 10650 10652 10654 10654 10655 10653 10653 10651 10650 10647 10645 10640 10637 10634 10632 10629 10626
10594 10595 10598 10603 10607 10611 10614 10620 10624 10628 10632 10635 10637 10639 10640 10641 10643 10644 10643 10642 10642 10640 10638 10635 10633 10629 10627 10626 10622 10619 10617 10615
10589 10589 10591 10595 10599 10602 10604 10609 10614 10617 10621 10623 10626 10628 10630 10631 10631 10632 10631 10629 10629 10627 10626 10623 10622 10617 10615 10615 10612 10609 10606 10604
10587 10585 10586 10589 10591 10594 10597 10599 10602 10606 10610 10612 10615 10616 10617 10619 10619 10619 10618 10616 10616 10614 10610 10610 10610 10607 10605 10600 10598 10596 10593 10589
10586 10583 10582 10581 10583 10585 10588 10589 10592 10594 10597 10601 10602 10604 10605 10606 10604 10605 10604 10604 10604 10602 10600 10598 10598 10595 10592 10591 10588 10584 10582 10579